Time,TemperatureF,DewpointF,PressureIn,WindDirection,WindDirectionDegrees,WindSpeedMPH,WindSpeedGustMPH,Humidity,HourlyPrecipIn,Conditions,Clouds,dailyrainin,SoftwareType,DateUTC
2013-03-29 00:00:00,51.3,49.9,30.10,SW,227,0.0,0.0,95,0.00,,---,0.00,VWS V14.00,2013-03-29 07:00:00,
2013-03-29 00:05:00,51.3,49.9,30.10,SW,227,0.0,0.0,95,0.00,,---,0.00,VWS V14.00,2013-03-29 07:05:00,
2013-03-29 00:10:00,51.2,49.8,30.10,SW,227,0.0,0.0,95,0.00,,---,0.00,VWS V14.00,2013-03-29 07:10:00,
2013-03-29 00:15:00,51.2,49.8,30.10,SW,227,0.0,0.0,95,0.00,,---,0.00,VWS V14.00,2013-03-29 07:15:00,
2013-03-29 00:20:00,51.2,49.8,30.10,SW,227,0.0,0.0,95,0.00,,---,0.00,VWS V14.00,2013-03-29 07:20:00,
2013-03-29 00:25:00,51.0,49.6,30.10,SW,227,0.0,0.0,95,0.00,,---,0.00,VWS V14.00,2013-03-29 07:25:00,
2013-03-29 00:30:00,51.0,49.6,30.10,SW,227,0.0,0.0,95,0.00,,---,0.00,VWS V14.00,2013-03-29 07:30:00,
2013-03-29 00:35:00,51.3,50.2,30.10,SW,227,0.0,0.0,96,0.00,,---,0.00,VWS V14.00,2013-03-29 07:35:00,
2013-03-29 00:40:00,51.5,50.4,30.11,SW,227,0.0,0.0,96,0.00,,---,0.00,VWS V14.00,2013-03-29 07:40:00,
2013-03-29 00:45:00,51.4,50.0,30.10,SW,227,0.0,0.0,95,0.00,,---,0.00,VWS V14.00,2013-03-29 07:45:00,
2013-03-29 00:50:00,51.3,49.9,30.10,SW,227,0.0,0.0,95,0.00,,---,0.00,VWS V14.00,2013-03-29 07:50:00,
2013-03-29 00:55:00,51.1,49.7,30.10,SW,227,0.0,0.0,95,0.00,,---,0.00,VWS V14.00,2013-03-29 07:55:00,
2013-03-29 01:00:00,50.9,49.5,30.10,SW,227,0.0,0.0,95,0.00,,---,0.00,VWS V14.00,2013-03-29 08:00:00,
2013-03-29 01:05:00,50.7,49.3,30.10,SW,227,0.0,0.0,95,0.00,,---,0.00,VWS V14.00,2013-03-29 08:05:00,
2013-03-29 01:10:00,50.4,49.0,30.10,SW,227,0.0,0.0,95,0.00,,---,0.00,VWS V14.00,2013-03-29 08:10:00,
2013-03-29 01:15:00,50.1,48.7,30.10,SW,227,0.0,0.0,95,0.00,,---,0.00,VWS V14.00,2013-03-29 08:15:00,
2013-03-29 01:19:00,50.1,49.0,30.10,SW,227,0.0,0.0,96,0.00,,---,0.00,VWS V14.00,2013-03-29 08:19:00,
2013-03-29 01:24:00,50.1,49.0,30.10,SW,227,0.0,0.0,96,0.00,,---,0.00,VWS V14.00,2013-03-29 08:24:00,
2013-03-29 01:29:00,50.1,49.0,30.10,SW,227,0.0,0.0,96,0.00,,---,0.00,VWS V14.00,2013-03-29 08:29:00,
2013-03-29 01:30:00,50.1,49.0,30.10,SW,227,0.0,0.0,96,0.00,,---,0.00,VWS V14.00,2013-03-29 08:30:00,
2013-03-29 01:34:00,49.9,48.8,30.10,SW,227,0.0,0.0,96,0.00,,---,0.00,VWS V14.00,2013-03-29 08:34:00,
2013-03-29 01:39:00,49.9,48.8,30.09,SW,227,0.0,0.0,96,0.00,,---,0.00,VWS V14.00,2013-03-29 08:39:00,
2013-03-29 01:44:00,49.7,48.6,30.09,SW,227,0.0,0.0,96,0.00,,---,0.00,VWS V14.00,2013-03-29 08:44:00,
2013-03-29 01:49:00,49.5,48.1,30.10,SW,227,0.0,0.0,95,0.00,,---,0.00,VWS V14.00,2013-03-29 08:49:00,
2013-03-29 01:54:00,49.4,48.0,30.09,SW,227,0.0,0.0,95,0.00,,---,0.00,VWS V14.00,2013-03-29 08:54:00,
2013-03-29 01:59:00,49.1,48.0,30.09,SW,227,0.0,0.0,96,0.00,,---,0.00,VWS V14.00,2013-03-29 08:59:00,
2013-03-29 02:00:00,49.2,48.1,30.09,SW,227,0.0,0.0,96,0.00,,---,0.00,VWS V14.00,2013-03-29 09:00:00,
2013-03-29 02:04:00,49.2,48.1,30.10,SW,227,0.0,0.0,96,0.00,,---,0.00,VWS V14.00,2013-03-29 09:04:00,
2013-03-29 02:09:00,49.3,48.2,30.10,SW,227,0.0,0.0,96,0.00,,---,0.00,VWS V14.00,2013-03-29 09:09:00,
2013-03-29 02:14:00,49.4,48.3,30.09,SW,227,0.0,0.0,96,0.00,,---,0.00,VWS V14.00,2013-03-29 09:14:00,
2013-03-29 02:19:00,49.5,48.4,30.10,SW,227,0.0,0.0,96,0.00,,---,0.00,VWS V14.00,2013-03-29 09:19:00,
2013-03-29 02:24:00,49.5,48.4,30.09,SW,227,0.0,0.0,96,0.00,,---,0.00,VWS V14.00,2013-03-29 09:24:00,
2013-03-29 02:29:00,49.5,48.4,30.09,SW,227,0.0,0.0,96,0.00,,---,0.00,VWS V14.00,2013-03-29 09:29:00,
2013-03-29 02:30:00,49.5,48.4,30.09,SW,227,0.0,0.0,96,0.00,,---,0.00,VWS V14.00,2013-03-29 09:30:00,
2013-03-29 02:34:00,49.6,48.5,30.09,SW,227,0.0,0.0,96,0.00,,---,0.00,VWS V14.00,2013-03-29 09:34:00,
2013-03-29 02:39:00,49.7,48.6,30.09,SW,227,0.0,0.0,96,0.00,,---,0.00,VWS V14.00,2013-03-29 09:39:00,
2013-03-29 02:44:00,49.7,48.6,30.09,SW,227,0.0,0.0,96,0.00,,---,0.00,VWS V14.00,2013-03-29 09:44:00,
2013-03-29 02:49:00,49.8,48.7,30.09,SW,227,0.0,0.0,96,0.00,,---,0.00,VWS V14.00,2013-03-29 09:49:00,
2013-03-29 02:54:00,49.9,49.1,30.09,SW,227,0.0,0.0,97,0.00,,---,0.00,VWS V14.00,2013-03-29 09:54:00,
2013-03-29 02:59:00,50.0,48.9,30.08,SW,227,0.0,0.0,96,0.00,,---,0.00,VWS V14.00,2013-03-29 09:59:00,
2013-03-29 03:00:00,50.0,48.9,30.09,SW,227,0.0,0.0,96,0.00,,---,0.00,VWS V14.00,2013-03-29 10:00:00,
2013-03-29 03:04:00,49.9,48.8,30.09,SW,227,0.0,0.0,96,0.00,,---,0.00,VWS V14.00,2013-03-29 10:04:00,
2013-03-29 03:09:00,49.9,48.8,30.08,SW,227,0.0,0.0,96,0.00,,---,0.00,VWS V14.00,2013-03-29 10:09:00,
2013-03-29 03:14:00,49.9,48.8,30.08,SW,227,0.0,0.0,96,0.00,,---,0.00,VWS V14.00,2013-03-29 10:14:00,
2013-03-29 03:19:00,49.8,48.7,30.08,SW,227,0.0,0.0,96,0.00,,---,0.00,VWS V14.00,2013-03-29 10:19:00,
2013-03-29 03:24:00,49.8,48.7,30.08,SW,227,0.0,1.0,96,0.00,,---,0.00,VWS V14.00,2013-03-29 10:24:00,
2013-03-29 03:29:00,49.9,48.8,30.08,NE,55,0.0,0.0,96,0.00,,---,0.00,VWS V14.00,2013-03-29 10:29:00,
2013-03-29 03:30:00,49.9,48.8,30.08,NE,55,0.0,3.0,96,0.00,,---,0.00,VWS V14.00,2013-03-29 10:30:00,
2013-03-29 03:34:00,49.9,48.8,30.08,NE,55,0.0,0.0,96,0.00,,---,0.00,VWS V14.00,2013-03-29 10:34:00,
2013-03-29 03:39:00,49.6,48.5,30.08,NE,55,0.0,0.0,96,0.00,,---,0.00,VWS V14.00,2013-03-29 10:39:00,
2013-03-29 03:44:00,49.2,48.1,30.08,NE,55,0.0,0.0,96,0.00,,---,0.00,VWS V14.00,2013-03-29 10:44:00,
2013-03-29 03:49:00,48.8,47.7,30.08,NE,55,0.0,0.0,96,0.00,,---,0.00,VWS V14.00,2013-03-29 10:49:00,
2013-03-29 03:54:00,48.9,47.8,30.08,NE,55,0.0,0.0,96,0.00,,---,0.00,VWS V14.00,2013-03-29 10:54:00,
2013-03-29 03:59:00,49.1,48.0,30.08,NE,55,0.0,0.0,96,0.00,,---,0.00,VWS V14.00,2013-03-29 10:59:00,
2013-03-29 04:00:00,49.1,48.0,30.08,NE,55,0.0,0.0,96,0.00,,---,0.00,VWS V14.00,2013-03-29 11:00:00,
2013-03-29 04:04:00,49.1,48.0,30.08,NE,55,0.0,0.0,96,0.00,,---,0.00,VWS V14.00,2013-03-29 11:04:00,
2013-03-29 04:09:00,49.0,47.9,30.08,NE,55,0.0,0.0,96,0.00,,---,0.00,VWS V14.00,2013-03-29 11:09:00,
2013-03-29 04:14:00,49.0,47.9,30.08,NE,55,0.0,0.0,96,0.00,,---,0.00,VWS V14.00,2013-03-29 11:14:00,
2013-03-29 04:19:00,48.8,47.7,30.08,NE,55,0.0,0.0,96,0.00,,---,0.00,VWS V14.00,2013-03-29 11:19:00,
2013-03-29 04:24:00,48.7,47.6,30.08,NE,55,0.0,0.0,96,0.00,,---,0.00,VWS V14.00,2013-03-29 11:24:00,
2013-03-29 04:29:00,48.6,47.5,30.08,NE,55,0.0,0.0,96,0.00,,---,0.00,VWS V14.00,2013-03-29 11:29:00,
2013-03-29 04:30:00,48.6,47.5,30.08,NE,55,0.0,0.0,96,0.00,,---,0.00,VWS V14.00,2013-03-29 11:30:00,
2013-03-29 04:34:00,48.7,47.6,30.08,NE,55,0.0,0.0,96,0.00,,---,0.00,VWS V14.00,2013-03-29 11:34:00,
2013-03-29 04:39:00,48.7,47.6,30.08,NE,55,0.0,0.0,96,0.00,,---,0.00,VWS V14.00,2013-03-29 11:39:00,
2013-03-29 04:44:00,48.6,47.5,30.08,NE,55,0.0,0.0,96,0.00,,---,0.00,VWS V14.00,2013-03-29 11:44:00,
2013-03-29 04:49:00,48.5,47.4,30.08,NE,55,0.0,0.0,96,0.00,,---,0.00,VWS V14.00,2013-03-29 11:49:00,
2013-03-29 04:54:00,48.4,47.3,30.08,NE,55,0.0,0.0,96,0.00,,---,0.00,VWS V14.00,2013-03-29 11:54:00,
2013-03-29 04:59:00,48.3,47.2,30.08,NE,55,0.0,0.0,96,0.00,,---,0.00,VWS V14.00,2013-03-29 11:59:00,
2013-03-29 05:00:00,48.3,47.2,30.08,NE,55,0.0,0.0,96,0.00,,---,0.00,VWS V14.00,2013-03-29 12:00:00,
2013-03-29 05:04:00,48.2,47.1,30.08,NE,55,0.0,0.0,96,0.00,,---,0.00,VWS V14.00,2013-03-29 12:04:00,
2013-03-29 05:09:00,47.9,46.8,30.09,NE,55,0.0,0.0,96,0.00,,---,0.00,VWS V14.00,2013-03-29 12:09:00,
2013-03-29 05:14:00,47.7,46.6,30.08,NE,55,0.0,0.0,96,0.00,,---,0.00,VWS V14.00,2013-03-29 12:14:00,
2013-03-29 05:19:00,47.8,46.7,30.08,NE,55,0.0,0.0,96,0.00,,---,0.00,VWS V14.00,2013-03-29 12:19:00,
2013-03-29 05:24:00,48.2,47.4,30.08,NE,55,0.0,0.0,97,0.00,,---,0.00,VWS V14.00,2013-03-29 12:24:00,
2013-03-29 05:29:00,48.6,47.8,30.08,NE,55,0.0,0.0,97,0.00,,---,0.00,VWS V14.00,2013-03-29 12:29:00,
2013-03-29 05:30:00,48.6,47.8,30.08,NE,55,0.0,0.0,97,0.00,,---,0.00,VWS V14.00,2013-03-29 12:30:00,
2013-03-29 05:34:00,48.6,47.8,30.08,NE,55,0.0,0.0,97,0.00,,---,0.00,VWS V14.00,2013-03-29 12:34:00,
2013-03-29 05:39:00,48.5,47.4,30.08,NE,55,0.0,1.0,96,0.00,,---,0.00,VWS V14.00,2013-03-29 12:39:00,
2013-03-29 05:44:00,48.7,47.9,30.08,NE,51,0.0,1.0,97,0.00,,---,0.00,VWS V14.00,2013-03-29 12:44:00,
2013-03-29 05:49:00,48.9,48.1,30.08,ENE,66,0.0,3.0,97,0.00,,---,0.00,VWS V14.00,2013-03-29 12:49:00,
2013-03-29 05:54:00,49.1,48.3,30.08,ENE,66,0.0,3.0,97,0.00,,---,0.00,VWS V14.00,2013-03-29 12:54:00,
2013-03-29 05:59:00,49.3,48.5,30.08,ENE,58,0.0,0.0,97,0.00,,---,0.00,VWS V14.00,2013-03-29 12:59:00,
2013-03-29 06:00:00,49.3,48.5,30.08,ENE,58,0.0,5.0,97,0.00,,---,0.00,VWS V14.00,2013-03-29 13:00:00,
2013-03-29 06:04:00,49.5,48.7,30.09,ENE,59,0.0,0.0,97,0.00,,---,0.00,VWS V14.00,2013-03-29 13:04:00,
2013-03-29 06:09:00,49.7,48.9,30.09,ENE,61,0.0,2.0,97,0.00,,---,0.00,VWS V14.00,2013-03-29 13:09:00,
2013-03-29 06:14:00,49.8,49.0,30.09,NE,52,0.0,3.0,97,0.00,,---,0.00,VWS V14.00,2013-03-29 13:14:00,
2013-03-29 06:19:00,49.9,49.1,30.09,NE,51,0.0,3.0,97,0.00,,---,0.00,VWS V14.00,2013-03-29 13:19:00,
2013-03-29 06:24:00,49.8,49.0,30.08,NE,51,0.0,3.0,97,0.00,,---,0.00,VWS V14.00,2013-03-29 13:24:00,
2013-03-29 06:29:00,49.8,49.0,30.08,NE,51,0.0,0.0,97,0.00,,---,0.00,VWS V14.00,2013-03-29 13:29:00,
2013-03-29 06:30:00,49.8,49.0,30.08,NE,51,0.0,3.0,97,0.00,,---,0.00,VWS V14.00,2013-03-29 13:30:00,
2013-03-29 06:34:00,49.7,48.6,30.08,NE,51,0.0,0.0,96,0.00,,---,0.00,VWS V14.00,2013-03-29 13:34:00,
2013-03-29 06:39:00,49.6,48.8,30.09,NE,51,0.0,0.0,97,0.00,,---,0.00,VWS V14.00,2013-03-29 13:39:00,
2013-03-29 06:44:00,49.6,48.8,30.09,NE,51,0.0,0.0,97,0.00,,---,0.00,VWS V14.00,2013-03-29 13:44:00,
2013-03-29 06:49:00,49.5,48.7,30.09,NE,51,0.0,0.0,97,0.00,,---,0.00,VWS V14.00,2013-03-29 13:49:00,
2013-03-29 06:54:00,49.4,48.6,30.09,NE,51,0.0,0.0,97,0.00,,---,0.00,VWS V14.00,2013-03-29 13:54:00,
2013-03-29 06:59:00,49.4,48.3,30.09,NE,51,0.0,0.0,96,0.00,,---,0.00,VWS V14.00,2013-03-29 13:59:00,
2013-03-29 07:00:00,49.4,48.3,30.09,NE,51,0.0,0.0,96,0.00,,---,0.00,VWS V14.00,2013-03-29 14:00:00,
2013-03-29 07:04:00,49.4,48.6,30.09,NE,51,0.0,0.0,97,0.00,,---,0.00,VWS V14.00,2013-03-29 14:04:00,
2013-03-29 07:09:00,49.5,48.7,30.09,NE,43,0.0,0.0,97,0.00,,---,0.00,VWS V14.00,2013-03-29 14:09:00,
2013-03-29 07:29:00,49.7,48.9,30.09,NNW,329,0.0,2.0,97,0.00,,---,0.00,VWS V14.00,2013-03-29 14:29:00,
2013-03-29 07:30:00,49.7,48.9,30.09,NNW,329,0.0,2.0,97,0.00,,---,0.00,VWS V14.00,2013-03-29 14:30:00,
2013-03-29 07:59:00,49.7,48.9,30.08,NW,322,0.0,6.0,97,0.00,,---,0.00,VWS V14.00,2013-03-29 14:59:00,
2013-03-29 08:00:00,49.7,48.9,30.08,NW,322,0.0,6.0,97,0.00,,---,0.00,VWS V14.00,2013-03-29 15:00:00,
2013-03-29 08:29:00,51.0,50.2,30.09,NE,40,0.0,5.0,97,0.00,,---,0.00,VWS V14.00,2013-03-29 15:29:00,
2013-03-29 08:30:00,51.0,50.2,30.09,NE,40,0.0,5.0,97,0.00,,---,0.00,VWS V14.00,2013-03-29 15:30:00,
2013-03-29 08:59:00,53.9,53.1,30.09,North,355,0.0,2.0,97,0.00,,---,0.01,VWS V14.00,2013-03-29 15:59:00,
2013-03-29 09:00:00,53.9,53.1,30.09,North,355,0.0,2.0,97,0.00,,---,0.01,VWS V14.00,2013-03-29 16:00:00,
2013-03-29 09:29:00,54.9,53.5,30.09,North,355,0.0,7.0,95,0.00,,---,0.01,VWS V14.00,2013-03-29 16:29:00,
2013-03-29 09:30:00,54.9,53.5,30.09,North,355,0.0,7.0,95,0.00,,---,0.01,VWS V14.00,2013-03-29 16:30:00,
2013-03-29 09:59:00,58.8,55.6,30.09,NNW,338,0.0,5.0,89,0.00,,---,0.01,VWS V14.00,2013-03-29 16:59:00,
2013-03-29 10:00:00,58.8,55.6,30.09,NNW,338,0.0,5.0,89,0.00,,---,0.01,VWS V14.00,2013-03-29 17:00:00,
2013-03-29 10:29:00,63.8,56.1,30.09,NW,310,0.0,4.0,76,0.00,,---,0.01,VWS V14.00,2013-03-29 17:29:00,
2013-03-29 10:30:00,63.8,56.1,30.09,NW,310,0.0,4.0,76,0.00,,---,0.01,VWS V14.00,2013-03-29 17:30:00,
2013-03-29 10:59:00,65.7,56.0,30.08,NE,55,0.0,11.0,71,0.00,,---,0.01,VWS V14.00,2013-03-29 17:59:00,
2013-03-29 11:00:00,65.7,56.0,30.08,NE,55,0.0,11.0,71,0.00,,---,0.01,VWS V14.00,2013-03-29 18:00:00,
2013-03-29 11:29:00,69.4,56.7,30.08,ENE,57,0.0,5.0,64,0.00,,---,0.01,VWS V14.00,2013-03-29 18:29:00,
2013-03-29 11:30:00,69.4,56.7,30.08,ENE,57,0.0,5.0,64,0.00,,---,0.01,VWS V14.00,2013-03-29 18:30:00,
2013-03-29 11:59:00,72.4,56.8,30.08,SSW,201,1.0,5.0,58,0.00,,---,0.01,VWS V14.00,2013-03-29 18:59:00,
2013-03-29 12:00:00,72.4,56.8,30.08,SSW,201,1.0,5.0,58,0.00,,---,0.01,VWS V14.00,2013-03-29 19:00:00,
2013-03-29 12:29:00,68.1,54.6,30.09,WSW,246,10.0,12.0,62,0.00,,---,0.01,VWS V14.00,2013-03-29 19:29:00,
2013-03-29 12:30:00,68.1,54.6,30.09,WSW,246,10.0,12.0,62,0.00,,---,0.01,VWS V14.00,2013-03-29 19:30:00,
2013-03-29 12:59:00,60.7,52.0,30.10,South,171,2.0,14.0,73,0.00,,---,0.01,VWS V14.00,2013-03-29 19:59:00,
2013-03-29 13:00:00,60.7,52.0,30.10,South,171,2.0,14.0,73,0.00,,---,0.01,VWS V14.00,2013-03-29 20:00:00,
2013-03-29 13:29:00,57.7,52.2,30.10,SSW,205,10.0,20.0,82,0.00,,---,0.01,VWS V14.00,2013-03-29 20:29:00,
2013-03-29 13:30:00,57.7,52.2,30.10,SSW,205,10.0,20.0,82,0.00,,---,0.01,VWS V14.00,2013-03-29 20:30:00,
2013-03-29 13:59:00,56.0,51.2,30.11,SW,222,6.0,15.0,84,0.00,,---,0.01,VWS V14.00,2013-03-29 20:59:00,
2013-03-29 14:00:00,56.0,51.2,30.11,SW,222,6.0,15.0,84,0.00,,---,0.01,VWS V14.00,2013-03-29 21:00:00,
2013-03-29 14:29:00,55.3,51.5,30.10,West,271,5.0,17.0,87,0.00,,---,0.01,VWS V14.00,2013-03-29 21:29:00,
2013-03-29 14:30:00,55.3,51.5,30.10,West,271,5.0,17.0,87,0.00,,---,0.01,VWS V14.00,2013-03-29 21:30:00,
2013-03-29 14:59:00,57.2,52.7,30.09,WSW,254,4.0,14.0,85,0.00,,---,0.01,VWS V14.00,2013-03-29 21:59:00,
2013-03-29 15:00:00,57.2,52.7,30.09,WSW,254,4.0,14.0,85,0.00,,---,0.01,VWS V14.00,2013-03-29 22:00:00,
2013-03-29 15:29:00,57.7,52.2,30.08,SE,139,0.0,11.0,82,0.00,,---,0.01,VWS V14.00,2013-03-29 22:29:00,
2013-03-29 15:30:00,57.7,52.2,30.08,SE,139,0.0,11.0,82,0.00,,---,0.01,VWS V14.00,2013-03-29 22:30:00,
2013-03-29 15:59:00,58.1,53.0,30.07,WSW,240,0.0,11.0,83,0.00,,---,0.01,VWS V14.00,2013-03-29 22:59:00,
2013-03-29 16:00:00,58.1,53.0,30.07,WSW,240,0.0,11.0,83,0.00,,---,0.01,VWS V14.00,2013-03-29 23:00:00,
2013-03-29 16:30:00,58.2,52.4,30.07,South,174,0.0,9.0,81,0.00,,---,0.01,VWS V14.00,2013-03-29 23:30:00,
2013-03-29 16:59:00,55.5,51.1,30.07,South,186,3.0,10.0,85,0.00,,---,0.01,VWS V14.00,2013-03-29 23:59:00,
2013-03-29 17:00:00,55.5,51.1,30.07,South,186,3.0,10.0,85,0.00,,---,0.01,VWS V14.00,2013-03-30 00:00:00,
2013-03-29 17:29:00,53.8,50.9,30.07,South,173,2.0,8.0,90,0.00,,---,0.01,VWS V14.00,2013-03-30 00:29:00,
2013-03-29 17:30:00,53.8,50.9,30.07,South,173,2.0,8.0,90,0.00,,---,0.01,VWS V14.00,2013-03-30 00:30:00,
2013-03-29 17:59:00,53.6,51.0,30.07,South,191,0.0,8.0,91,0.00,,---,0.01,VWS V14.00,2013-03-30 00:59:00,
2013-03-29 18:00:00,53.6,51.0,30.07,South,191,0.0,8.0,91,0.00,,---,0.01,VWS V14.00,2013-03-30 01:00:00,
2013-03-29 18:29:00,52.9,50.3,30.08,WSW,248,0.0,9.0,91,0.00,,---,0.01,VWS V14.00,2013-03-30 01:29:00,
2013-03-29 18:30:00,52.9,50.3,30.08,WSW,248,0.0,9.0,91,0.00,,---,0.01,VWS V14.00,2013-03-30 01:30:00,
2013-03-29 19:00:00,52.5,50.2,30.08,West,264,0.0,6.0,92,0.00,,---,0.01,VWS V14.00,2013-03-30 02:00:00,
2013-03-29 19:30:00,52.2,50.2,30.08,SW,225,0.0,5.0,93,0.00,,---,0.01,VWS V14.00,2013-03-30 02:30:00,
2013-03-29 20:00:00,51.5,49.5,30.07,SW,225,0.0,4.0,93,0.00,,---,0.01,VWS V14.00,2013-03-30 03:00:00,
2013-03-29 20:30:00,51.3,49.6,30.07,SSE,158,0.0,1.0,94,0.00,,---,0.01,VWS V14.00,2013-03-30 03:30:00,
2013-03-29 21:00:00,51.2,49.8,30.09,SSE,158,0.0,5.0,95,0.00,,---,0.01,VWS V14.00,2013-03-30 04:00:00,
2013-03-29 21:30:00,51.0,49.6,30.09,SSW,202,0.0,4.0,95,0.00,,---,0.01,VWS V14.00,2013-03-30 04:30:00,
2013-03-29 22:00:00,50.8,49.4,30.09,SSW,202,0.0,4.0,95,0.00,,---,0.01,VWS V14.00,2013-03-30 05:00:00,
2013-03-29 22:30:00,50.9,49.8,30.10,SSW,202,0.0,5.0,96,0.00,,---,0.01,VWS V14.00,2013-03-30 05:30:00,
2013-03-29 23:00:00,50.9,49.8,30.10,SW,225,0.0,4.0,96,0.00,,---,0.01,VWS V14.00,2013-03-30 06:00:00,
2013-03-29 23:30:00,50.9,49.8,30.10,SW,225,0.0,3.0,96,0.00,,---,0.01,VWS V14.00,2013-03-30 06:30:00,